Temperature
21 22 22 22 22 22 22 21 21 21 22 21 21 21 21 20 20 20 20 20 20 19 19 19 18 18 18 18 17 17 17 17 16 16 16 15 15 15 15 14 14 14 14 14
22 21 21 21 21 21 21 21 21 21 21 22 21 21 22 21 21 20 20 20 20 20 19 18 18 18 18 18 17 17 17 17 16 16 16 15 15 15 15 15 14 14 14 14
21 21 21 21 21 21 21 21 21 21 21 21 21 21 21 21 20 20 20 20 20 20 19 19 19 18 18 18 18 17 17 17 16 16 16 16 15 15 15 14 14 15 15 15
21 21 21 21 21 21 21 21 21 21 21 21 21 21 22 22 21 21 20 20 20 20 20 19 19 18 18 18 18 18 17 17 16 16 16 16 15 15 15 15 14 15 15 15
21 21 21 21 21 21 21 20 20 20 20 20 21 21 22 22 21 21 21 20 20 20 20 19 19 19 18 18 18 18 17 17 17 16 16 16 15 15 15 15 14 14 15 15
21 21 21 21 21 21 20 20 20 20 20 20 21 21 22 22 22 22 22 21 20 20 20 19 19 18 18 18 18 18 17 17 17 17 16 16 16 15 15 15 15 15 15 15
21 21 21 20 20 20 20 20 20 20 20 20 21 21 22 23 23 23 22 22 21 20 20 19 19 19 19 18 18 18 18 17 17 17 16 16 16 16 15 15 15 15 15 15
21 20 21 21 21 21 21 21 20 20 20 21 21 21 23 23 22 22 22 22 21 20 20 19 19 19 19 19 19 18 18 17 17 17 16 16 16 16 16 15 15 15 15 15
21 21 21 20 21 21 21 21 21 21 20 20 21 22 23 23 22 22 22 21 21 20 20 19 19 19 19 19 19 18 18 18 17 17 17 16 16 16 16 15 15 15 15 15
22 21 21 20 20 20 21 21 20 20 19 20 21 22 22 22 22 22 22 21 21 20 20 19 19 19 19 19 19 18 18 18 17 17 17 16 16 16 16 16 15 15 15 15
22 21 20 20 20 20 20 20 20 20 20 20 21 22 23 23 23 22 22 21 21 20 20 19 19 19 19 19 19 19 18 18 18 17 17 17 16 16 16 16 16 15 15 15
21 21 21 21 21 21 21 21 21 20 20 20 21 22 23 23 22 22 22 21 21 20 20 19 19 19 19 19 19 19 18 18 18 17 17 17 17 16 16 16 16 16 15 15
21 21 20 20 20 20 20 21 21 21 21 20 20 22 23 23 22 21 21 21 20 20 19 19 19 19 19 19 19 19 18 18 18 18 17 17 17 16 16 16 16 16 16 15
21 21 21 20 21 21 20 20 20 20 20 21 21 22 23 23 22 22 21 21 20 20 19 19 19 19 19 19 19 19 18 18 18 18 17 17 17 16 16 16 16 16 16 16
21 21 21 21 21 21 21 21 20 20 21 21 22 22 23 23 22 22 21 20 20 20 19 19 19 19 19 19 19 19 18 18 18 18 17 17 17 17 16 16 16 16 16 16
21 21 21 21 21 21 21 21 21 21 21 21 22 22 23 22 22 21 21 20 20 20 19 19 19 19 19 19 19 19 18 18 18 18 18 17 17 17 17 16 16 16 16 16
21 21 21 21 21 21 21 22 21 21 21 22 22 22 23 22 22 21 20 20 20 19 19 19 19 19 19 19 19 19 19 19 18 18 18 18 17 17 17 17 16 16 16 16
21 21 21 21 21 20 22 22 22 21 21 22 22 22 22 22 21 20 19 19 19 19 19 19 19 19 19 19 19 19 18 18 18 18 18 18 18 17 17 17 17 16 16 16
20 20 20 21 21 21 22 22 21 21 22 22 22 22 21 21 21 21 19 19 19 19 19 19 19 19 19 19 19 18 18 18 18 18 18 18 18 17 17 17 17 16 16 16
19 20 20 20 20 21 22 22 21 22 22 22 22 22 22 21 22 22 19 19 19 19 19 19 19 19 19 19 19 18 18 18 18 18 18 18 18 18 17 17 17 16 16 16
19 19 19 20 21 22 22 21 20 21 22 22 21 21 21 22 22 21 19 19 19 19 19 19 19 19 19 19 19 18 19 19 19 18 18 18 18 18 17 17 17 16 16 16
20 20 20 20 20 21 21 20 22 22 22 21 21 21 21 20 20 19 19 19 19 19 19 19 19 19 19 19 19 19 19 19 18 18 18 18 18 17 17 17 17 16 16 16
21 21 21 22 22 21 20 20 20 20 21 21 20 20 20 19 19 19 19 19 19 19 19 19 18 19 19 19 19 19 18 18 18 18 18 18 18 18 17 17 17 16 16 16
20 19 20 21 21 20 19 19 19 19 19 19 19 19 19 19 19 18 19 18 19 19 18 18 18 18 18 18 18 18 18 18 18 18 18 18 17 17 17 17 17 16 16 16
19 19 20 21 21 19 19 18 18 18 19 19 19 19 19 19 18 18 18 18 18 18 18 18 18 18 18 18 18 18 18 18 18 17 17 17 17 17 17 17 17 16 16 16
19 19 20 21 21 21 20 19 18 18 18 18 18 18 18 18 18 18 18 18 18 18 18 18 18 18 17 17 18 18 18 18 17 17 17 17 17 17 16 16 16 16 16 16
Wind_Speed
3 4 4 4 4 2 3 5 4 3 3 5 6 7 9 11 12 12 12 12 12 11 10 9 8 7 7 7 7 7 7 7 6 5 4 4 4 4 4 5 6 5 5 5
4 3 2 2 3 4 5 5 4 3 2 3 5 7 8 11 13 13 13 13 13 12 11 10 9 9 9 9 8 8 7 7 6 4 4 4 4 4 4 4 5 5 6 6
3 2 3 5 5 5 5 5 4 3 2 3 4 6 9 10 11 12 12 13 14 14 14 14 12 10 9 9 9 8 8 7 7 6 4 4 4 4 4 4 4 5 5 6
2 3 4 5 5 5 4 3 4 4 5 4 5 5 8 11 13 14 15 15 15 14 14 14 13 12 11 10 9 8 9 8 7 7 5 5 3 3 4 3 4 5 5 6
3 4 5 5 3 5 1 2 3 4 5 5 7 6 5 10 13 16 17 17 16 16 15 14 14 12 11 10 9 8 9 8 7 6 6 5 4 4 4 4 4 4 5 5
2 2 3 2 2 3 5 4 3 3 4 6 7 7 4 8 13 14 17 18 18 17 16 15 13 11 10 10 9 9 9 8 7 7 7 5 5 5 5 5 4 4 4 4
5 5 3 3 5 5 6 5 3 4 5 4 3 6 4 3 7 11 14 17 18 17 16 16 15 14 12 12 11 10 10 9 8 8 7 6 6 5 5 5 4 4 4 4
5 5 6 5 5 5 6 6 4 3 3 2 4 5 2 1 3 7 11 14 18 18 17 16 16 15 14 13 12 12 11 10 9 8 7 6 6 4 4 4 4 4 3 4
4 3 4 4 4 5 5 5 4 4 3 4 4 3 2 3 4 5 8 12 16 18 17 16 16 15 15 15 13 13 12 11 10 9 8 7 7 5 5 5 4 4 4 4
4 3 4 5 4 3 3 3 3 4 3 3 3 3 2 4 4 6 8 11 14 16 17 17 16 15 14 14 13 12 12 12 11 10 8 7 7 6 5 5 5 5 5 4
6 4 4 6 7 7 6 6 5 4 4 3 2 1 1 1 2 4 6 9 12 15 16 16 15 15 14 13 13 13 12 12 11 10 9 9 8 7 7 5 5 5 5 5
7 4 4 5 3 3 8 8 7 5 4 4 3 1 3 1 1 2 4 7 10 13 15 15 15 15 14 14 13 13 13 12 11 11 10 9 8 8 8 7 6 6 5 4
7 5 4 4 5 6 7 8 9 7 6 5 5 1 2 1 1 2 3 6 9 12 14 14 14 15 15 14 14 13 13 13 11 11 11 10 9 9 8 8 6 6 5 5
6 6 6 4 1 4 8 9 10 10 7 7 8 7 5 4 4 3 3 6 8 11 13 15 15 15 15 15 15 15 14 13 12 12 11 11 10 9 8 8 7 6 6 6
6 7 7 7 4 5 8 10 12 13 12 10 9 9 9 7 6 4 4 6 8 11 13 15 16 15 15 15 14 15 14 13 13 13 12 11 10 9 8 8 7 6 6 6
6 6 7 7 6 7 9 10 12 14 14 14 13 12 9 6 4 3 5 7 9 11 13 14 15 16 16 16 15 15 15 14 14 13 12 11 11 10 9 9 8 8 7 6
6 6 6 6 5 6 8 9 11 11 12 12 12 10 7 4 3 3 4 7 9 10 12 14 15 15 16 16 16 16 16 15 14 14 12 11 11 10 10 9 9 8 7 7
8 8 5 5 5 6 2 1 6 9 11 11 11 9 6 5 3 2 4 6 8 9 11 13 13 14 14 14 15 15 15 15 15 14 13 12 11 11 10 10 9 9 8 7
9 8 6 6 6 6 4 3 4 6 6 7 10 8 5 4 3 2 2 5 6 7 9 10 11 12 13 14 14 14 15 15 15 14 13 13 12 12 11 11 11 9 8 7
7 8 7 7 7 5 2 3 3 5 4 2 6 7 7 7 4 2 3 4 5 6 7 9 10 11 12 12 13 14 14 14 15 14 13 13 12 12 12 12 10 9 8 7
9 8 10 10 8 6 2 3 5 5 0 1 3 5 8 7 3 3 4 5 5 6 7 9 10 10 11 12 13 14 14 14 13 12 12 12 12 12 11 10 9 9 8 7
10 9 10 9 9 6 4 6 6 1 2 1 3 4 6 6 4 5 5 4 5 6 7 8 9 9 9 11 12 12 12 11 10 10 11 11 11 10 9 9 9 9 8 8
9 8 6 7 5 1 4 4 2 2 2 1 3 4 6 6 5 5 5 5 5 6 7 8 9 9 9 9 10 11 10 9 10 10 10 10 10 9 9 9 10 9 8 7
6 5 5 6 6 4 3 3 3 2 1 0 2 4 6 7 6 6 6 5 5 6 7 7 8 9 8 8 8 8 8 9 10 10 9 9 9 9 9 7 8 8 8 8
6 7 7 7 6 4 4 4 3 1 2 3 4 4 5 7 6 6 6 6 6 6 7 7 7 7 7 7 7 6 7 9 9 9 8 8 7 7 8 7 6 8 7 7
7 8 9 8 7 6 5 4 4 3 3 4 5 6 5 6 6 6 6 6 6 7 7 7 7 6 6 6 6 6 6 8 9 8 7 6 6 6 6 6 5 2 2 3
Wind_Direction
182 200 198 195 212 224 195 195 191 179 176 207 211 203 186 182 188 187 185 188 189 186 181 179 177 173 170 168 167 161 161 157 152 145 140 127 111 103 89 72 61 58 56 59
183 199 186 157 170 190 198 201 199 177 164 215 217 217 200 192 198 197 195 196 195 186 184 185 187 185 181 177 178 174 171 169 164 152 136 123 114 102 90 87 75 61 60 59
209 110 157 183 182 199 213 219 210 196 177 206 227 229 208 201 203 204 208 206 202 194 191 188 190 188 185 183 184 180 175 173 168 158 143 134 125 126 118 102 81 63 61 62
204 164 180 196 205 221 221 217 222 211 216 218 218 244 215 202 203 207 209 208 205 200 198 192 189 188 190 187 183 184 176 177 170 165 166 155 143 123 106 103 99 90 74 69
186 188 201 211 212 219 201 145 206 225 239 245 226 246 222 195 209 210 208 207 205 199 197 194 192 190 189 183 181 184 173 173 172 174 165 169 150 130 124 122 113 101 83 71
195 190 226 212 156 181 153 157 169 208 236 242 225 235 238 201 212 207 204 203 203 199 195 193 190 185 183 180 177 176 173 173 172 176 176 173 155 152 142 135 122 112 101 86
188 186 178 181 167 165 196 204 209 210 214 229 196 236 249 217 218 212 205 201 198 197 192 190 187 186 184 181 180 178 176 175 176 179 180 174 169 160 152 141 131 122 108 95
204 190 186 197 215 201 205 225 239 246 236 214 204 235 226 201 227 214 207 202 195 194 193 191 189 187 186 184 181 182 181 179 178 181 180 176 167 163 146 142 135 125 108 97
216 181 156 191 218 223 201 221 265 274 271 257 219 225 224 184 179 181 189 193 194 193 192 191 190 189 187 185 182 183 180 180 180 181 176 174 173 165 155 151 140 129 120 112
222 203 165 161 179 205 255 216 213 235 251 243 231 228 197 164 170 173 183 190 190 189 190 190 188 188 189 186 181 181 182 181 180 178 175 171 172 167 162 158 151 143 133 124
219 216 176 187 211 200 195 210 225 235 258 273 252 125 75 173 178 183 188 190 189 187 187 187 186 186 185 182 181 181 182 180 178 178 175 171 170 169 168 165 157 156 150 147
204 224 213 203 202 252 228 228 223 234 233 249 272 301 91 213 237 213 205 191 187 186 185 184 183 181 179 180 182 184 182 180 179 178 176 175 168 172 172 168 168 169 159 152
183 214 212 189 193 203 221 225 228 240 255 244 246 235 104 217 259 250 223 197 186 184 182 179 180 182 181 180 181 182 183 180 179 178 179 177 174 178 177 173 169 170 165 164
203 223 236 241 246 200 213 215 219 228 239 244 245 267 283 293 290 270 232 198 185 182 180 179 179 182 182 182 183 182 183 180 179 178 182 181 181 182 181 175 174 173 169 169
215 237 237 253 256 241 238 229 220 228 242 253 265 272 281 293 285 261 218 190 183 181 181 182 182 182 181 182 186 184 182 181 181 181 185 185 182 179 179 175 177 175 173 173
218 238 236 238 237 243 249 241 233 235 243 250 262 270 277 280 268 234 199 187 186 185 185 185 185 182 183 183 185 184 183 183 184 185 187 183 182 178 181 181 180 180 180 180
208 227 235 238 227 246 250 237 229 230 236 242 250 257 268 263 253 238 204 198 194 190 187 185 186 186 186 185 186 186 185 182 185 187 187 182 184 181 184 180 180 183 185 183
218 220 235 245 229 242 247 185 227 232 241 239 248 258 260 251 243 235 213 201 196 190 186 187 187 187 188 185 186 185 181 183 186 188 187 184 184 183 181 182 185 187 185 185
221 217 225 233 238 255 251 214 208 222 249 237 237 239 227 204 179 166 187 195 194 188 184 183 185 186 185 183 182 180 181 184 187 190 190 188 187 186 186 189 192 188 187 189
197 216 226 226 234 245 225 140 193 219 236 222 223 218 200 186 184 166 157 177 178 174 175 175 177 178 178 178 177 179 181 184 190 193 192 190 191 190 192 193 191 186 188 190
184 200 219 228 235 247 242 153 180 212 97 100 194 193 185 190 171 127 142 153 160 164 164 167 169 171 173 171 174 180 183 189 191 188 187 187 191 194 194 191 187 184 185 187
202 202 210 217 226 232 149 165 199 295 25 135 158 164 170 167 147 135 141 148 145 151 156 160 161 163 164 169 174 180 188 187 179 178 182 186 189 189 187 184 184 184 183 187
214 214 209 214 222 169 170 210 258 300 273 173 151 149 155 152 146 143 142 140 135 139 146 152 152 152 156 168 178 182 182 174 172 174 179 183 184 186 185 183 182 184 188 197
205 205 206 219 224 219 226 240 249 252 256 187 157 149 148 146 141 136 131 128 132 135 139 144 146 148 152 162 176 180 169 169 171 175 178 179 183 183 184 185 188 191 194 200
207 192 206 220 220 208 217 220 211 191 137 129 137 141 144 141 137 135 130 128 130 134 138 141 146 148 150 155 161 165 166 169 171 173 174 176 180 183 185 187 196 201 203 207
204 207 211 216 207 207 204 188 177 161 144 139 136 129 128 134 132 128 123 123 127 130 134 137 140 142 146 149 151 153 162 170 171 172 173 174 176 181 184 183 184 176 225 176
Height
1522 1521 1520 1519 1519 1520 1521 1523 1525 1525 1526 1528 1528 1529 1531 1535 1538 1540 1542 1544 1547 1550 1553 1555 1558 1559 1561 1563 1565 1566 1567 1568 1568 1569 1570 1570 1570 1570 1570 1569 1569 1568 1568 1568
1520 1520 1520 1521 1521 1522 1522 1524 1525 1526 1526 1526 1527 1527 1528 1532 1534 1537 1539 1542 1544 1548 1551 1554 1557 1559 1561 1562 1564 1566 1567 1568 1569 1570 1571 1571 1571 1571 1570 1570 1570 1570 1570 1569
1518 1520 1522 1522 1523 1523 1523 1523 1524 1526 1527 1526 1528 1528 1526 1529 1532 1535 1538 1540 1542 1545 1549 1552 1555 1557 1560 1562 1564 1566 1567 1568 1569 1570 1570 1571 1571 1572 1572 1572 1571 1571 1571 1570
1519 1520 1522 1522 1522 1522 1524 1522 1524 1526 1528 1528 1529 1532 1522 1522 1528 1531 1534 1537 1540 1543 1546 1550 1553 1556 1558 1561 1563 1565 1567 1568 1569 1570 1571 1572 1572 1573 1573 1573 1573 1572 1572 1572
1519 1520 1521 1521 1521 1522 1522 1523 1524 1525 1526 1528 1526 1528 1519 1519 1524 1525 1528 1532 1536 1540 1543 1547 1550 1553 1557 1559 1562 1564 1566 1568 1569 1570 1571 1572 1573 1573 1574 1574 1574 1574 1573 1573
1518 1520 1520 1520 1522 1522 1524 1525 1525 1526 1526 1532 1523 1525 1520 1514 1515 1517 1522 1527 1532 1536 1540 1544 1548 1551 1555 1558 1560 1563 1565 1567 1568 1570 1571 1572 1573 1574 1574 1575 1575 1575 1575 1575
1519 1519 1520 1521 1522 1523 1523 1526 1532 1533 1533 1527 1519 1522 1516 1507 1509 1512 1516 1521 1527 1532 1537 1541 1545 1548 1552 1556 1559 1561 1564 1566 1568 1570 1571 1572 1574 1575 1575 1576 1576 1577 1577 1576
1519 1520 1518 1519 1518 1519 1520 1521 1530 1535 1531 1523 1520 1518 1508 1506 1509 1511 1514 1518 1522 1528 1533 1537 1542 1546 1550 1553 1557 1560 1563 1565 1567 1569 1571 1573 1574 1575 1576 1576 1577 1577 1578 1577
1515 1517 1516 1518 1518 1517 1519 1520 1518 1523 1523 1525 1516 1509 1504 1504 1506 1509 1512 1515 1519 1524 1529 1534 1539 1543 1547 1551 1555 1558 1561 1564 1566 1569 1571 1572 1574 1575 1576 1577 1577 1578 1578 1578
1510 1516 1515 1518 1519 1520 1518 1517 1522 1525 1530 1528 1517 1511 1507 1504 1505 1507 1510 1512 1516 1521 1526 1531 1536 1540 1545 1549 1553 1556 1560 1563 1565 1568 1570 1572 1573 1575 1576 1577 1578 1579 1579 1579
1509 1513 1517 1517 1517 1517 1521 1520 1519 1520 1521 1524 1523 1512 1499 1501 1503 1504 1507 1510 1513 1518 1523 1527 1533 1538 1542 1546 1551 1554 1558 1561 1564 1567 1569 1571 1573 1574 1576 1577 1578 1579 1579 1580
1508 1509 1513 1513 1513 1514 1513 1513 1515 1523 1521 1518 1518 1513 1499 1501 1502 1504 1506 1508 1512 1516 1520 1525 1530 1535 1539 1543 1548 1552 1556 1559 1562 1565 1568 1570 1572 1574 1575 1577 1578 1579 1580 1580
1507 1509 1515 1517 1519 1516 1514 1512 1512 1513 1515 1516 1519 1511 1498 1500 1501 1503 1504 1506 1509 1513 1517 1522 1527 1531 1536 1540 1545 1549 1553 1557 1560 1564 1567 1569 1571 1573 1575 1576 1577 1578 1579 1580
1506 1505 1509 1514 1509 1506 1510 1511 1511 1512 1514 1512 1509 1504 1497 1497 1499 1501 1503 1504 1507 1510 1514 1519 1523 1528 1533 1537 1542 1546 1551 1554 1558 1561 1565 1567 1570 1572 1574 1576 1577 1578 1579 1580
1505 1503 1501 1501 1502 1504 1505 1506 1508 1509 1506 1506 1501 1500 1496 1496 1497 1499 1501 1503 1505 1508 1512 1516 1520 1524 1529 1534 1539 1544 1548 1552 1555 1559 1562 1565 1568 1570 1572 1574 1576 1577 1578 1579
1502 1501 1500 1502 1501 1502 1503 1501 1502 1503 1502 1501 1499 1498 1493 1495 1496 1497 1499 1501 1503 1506 1509 1513 1517 1522 1526 1530 1535 1540 1544 1549 1553 1556 1560 1563 1566 1568 1570 1572 1574 1576 1577 1578
1499 1499 1501 1500 1499 1501 1502 1495 1496 1497 1495 1496 1496 1493 1492 1493 1495 1496 1497 1499 1500 1503 1506 1510 1514 1518 1522 1527 1532 1537 1541 1546 1550 1554 1557 1560 1563 1566 1568 1571 1572 1574 1575 1577
1497 1498 1498 1499 1501 1509 1493 1487 1489 1491 1491 1491 1490 1490 1491 1492 1494 1495 1496 1497 1499 1501 1504 1507 1511 1515 1520 1524 1529 1534 1538 1542 1547 1551 1554 1557 1560 1563 1566 1568 1570 1572 1574 1575
1495 1496 1498 1498 1500 1495 1488 1486 1488 1489 1487 1485 1487 1488 1490 1491 1492 1493 1494 1495 1497 1499 1501 1505 1509 1513 1518 1522 1526 1531 1535 1539 1543 1547 1550 1554 1557 1560 1563 1565 1568 1570 1571 1573
1495 1494 1496 1497 1500 1499 1486 1484 1486 1488 1487 1482 1483 1485 1487 1489 1489 1491 1493 1494 1496 1498 1500 1503 1507 1511 1515 1519 1523 1528 1531 1535 1539 1543 1547 1550 1554 1557 1560 1562 1565 1567 1569 1570
1493 1494 1495 1494 1494 1486 1481 1484 1487 1490 1484 1481 1482 1483 1485 1487 1488 1491 1491 1493 1495 1497 1499 1502 1505 1509 1513 1517 1521 1525 1529 1532 1536 1540 1544 1547 1550 1554 1557 1559 1561 1564 1565 1567
1482 1486 1489 1489 1492 1489 1481 1483 1483 1481 1480 1481 1482 1483 1485 1486 1488 1490 1491 1492 1494 1496 1498 1501 1504 1507 1511 1515 1519 1523 1526 1530 1534 1537 1540 1544 1547 1550 1553 1556 1558 1560 1562 1564
1476 1476 1476 1478 1480 1478 1480 1480 1481 1481 1481 1481 1482 1483 1484 1486 1488 1490 1491 1492 1493 1495 1498 1500 1503 1506 1510 1513 1517 1521 1525 1528 1531 1534 1537 1541 1544 1547 1549 1552 1554 1556 1558 1560
1475 1477 1476 1476 1476 1478 1479 1480 1480 1480 1481 1481 1482 1483 1484 1486 1488 1489 1490 1492 1493 1495 1498 1500 1503 1506 1509 1512 1515 1519 1522 1525 1529 1532 1535 1538 1541 1543 1546 1548 1550 1552 1554 1556
1472 1475 1473 1473 1475 1477 1477 1478 1479 1479 1480 1481 1482 1483 1484 1486 1487 1489 1490 1492 1493 1495 1498 1500 1503 1505 1508 1511 1514 1517 1520 1523 1526 1529 1532 1535 1537 1540 1542 1544 1547 1549 1550 1552
1470 1471 1470 1470 1471 1473 1475 1476 1477 1479 1480 1481 1482 1483 1484 1486 1487 1489 1490 1492 1494 1496 1498 1500 1503 1505 1508 1510 1513 1515 1518 1521 1524 1526 1529 1532 1534 1537 1539 1541 1543 1545 1547 1548